Time,TemperatureF,DewpointF,PressureIn,WindDirection,WindDirectionDegrees,WindSpeedMPH,WindSpeedGustMPH,Humidity,HourlyPrecipIn,Conditions,Clouds,dailyrainin,SolarRadiationWatts/m^2,SoftwareType,DateUTC
2013-02-02 00:11:00,47.0,32.0,-100.00,SE,126,2.0,5.0,56,0.00,,,0.00,0.000000,,2013-02-02 08:11:00,
2013-02-02 00:21:00,47.0,32.0,-100.00,SE,126,2.0,5.0,56,0.00,,,0.00,0.000000,,2013-02-02 08:21:00,
2013-02-02 00:31:00,47.0,32.0,-100.00,SE,126,2.0,5.0,56,0.00,,,0.00,0.000000,,2013-02-02 08:31:00,
2013-02-02 00:41:00,47.0,32.0,-100.00,SE,126,2.0,5.0,56,0.00,,,0.00,0.000000,,2013-02-02 08:41:00,
2013-02-02 00:52:00,47.0,32.0,-100.00,SE,126,2.0,5.0,56,0.00,,,0.00,0.000000,,2013-02-02 08:52:00,
2013-02-02 01:11:00,48.0,29.0,-100.00,NNW,335,3.0,5.0,47,0.00,,,0.00,0.000000,,2013-02-02 09:11:00,
2013-02-02 01:22:00,48.0,29.0,-100.00,NNW,335,3.0,5.0,47,0.00,,,0.00,0.000000,,2013-02-02 09:22:00,
2013-02-02 02:11:00,48.0,34.0,-100.00,SSW,192,1.0,5.0,57,0.00,,,0.00,0.000000,,2013-02-02 10:11:00,
2013-02-02 02:21:00,48.0,34.0,-100.00,SSW,192,1.0,5.0,57,0.00,,,0.00,0.000000,,2013-02-02 10:21:00,
2013-02-02 02:31:00,48.0,34.0,-100.00,SSW,192,1.0,5.0,57,0.00,,,0.00,0.000000,,2013-02-02 10:31:00,
2013-02-02 02:41:00,48.0,34.0,-100.00,SSW,192,1.0,5.0,57,0.00,,,0.00,0.000000,,2013-02-02 10:41:00,
2013-02-02 02:51:00,48.0,34.0,-100.00,SSW,192,1.0,5.0,57,0.00,,,0.00,0.000000,,2013-02-02 10:51:00,
2013-02-02 03:21:00,48.0,32.0,-100.00,SE,125,1.0,4.0,53,0.00,,,0.00,0.000000,,2013-02-02 11:21:00,
2013-02-02 03:31:00,48.0,32.0,-100.00,SE,125,1.0,4.0,53,0.00,,,0.00,0.000000,,2013-02-02 11:31:00,
2013-02-02 03:41:00,48.0,32.0,-100.00,SE,125,1.0,4.0,53,0.00,,,0.00,0.000000,,2013-02-02 11:41:00,
2013-02-02 03:52:00,48.0,32.0,-100.00,SE,125,1.0,4.0,53,0.00,,,0.00,0.000000,,2013-02-02 11:52:00,
2013-02-02 05:11:00,48.0,33.0,-100.00,ESE,122,1.0,3.0,55,-99.99,,,0.00,0.000000,,2013-02-02 13:11:00,
2013-02-02 05:21:00,48.0,33.0,-100.00,ESE,122,1.0,3.0,55,-99.99,,,0.00,0.000000,,2013-02-02 13:21:00,
2013-02-02 05:32:00,48.0,33.0,-100.00,ESE,122,1.0,3.0,55,-99.99,,,0.00,0.000000,,2013-02-02 13:32:00,
2013-02-02 05:42:00,48.0,33.0,-100.00,ESE,122,1.0,3.0,55,-99.99,,,0.00,0.000000,,2013-02-02 13:42:00,
2013-02-02 05:51:00,48.0,33.0,-100.00,ESE,122,1.0,3.0,55,-99.99,,,0.00,0.000000,,2013-02-02 13:51:00,
2013-02-02 06:11:00,50.0,35.0,-100.00,East,81,2.0,5.0,56,0.00,,,0.00,0.000000,,2013-02-02 14:11:00,
2013-02-02 06:22:00,50.0,35.0,-100.00,East,81,2.0,5.0,56,0.00,,,0.00,0.000000,,2013-02-02 14:22:00,
2013-02-02 06:42:00,50.0,35.0,-100.00,East,81,2.0,5.0,56,0.00,,,0.00,0.000000,,2013-02-02 14:42:00,
2013-02-02 06:52:00,50.0,35.0,-100.00,East,81,2.0,5.0,56,0.00,,,0.00,0.000000,,2013-02-02 14:52:00,
2013-02-02 07:12:00,49.0,34.0,-100.00,North,350,3.0,5.0,57,-99.99,,,0.00,0.000000,,2013-02-02 15:12:00,
2013-02-02 07:21:00,49.0,34.0,-100.00,North,350,3.0,5.0,57,-99.99,,,0.00,0.000000,,2013-02-02 15:21:00,
2013-02-02 07:32:00,49.0,34.0,-100.00,North,350,3.0,5.0,57,-99.99,,,0.00,0.000000,,2013-02-02 15:32:00,
2013-02-02 07:42:00,49.0,34.0,-100.00,North,350,3.0,5.0,57,-99.99,,,0.00,0.000000,,2013-02-02 15:42:00,
2013-02-02 07:51:00,49.0,34.0,-100.00,North,350,3.0,5.0,57,-99.99,,,0.00,0.000000,,2013-02-02 15:51:00,
2013-02-02 08:11:00,49.0,34.0,-100.00,NNW,346,4.0,7.0,56,0.00,,,0.00,12.000000,,2013-02-02 16:11:00,
2013-02-02 08:22:00,49.0,34.0,-100.00,NNW,346,4.0,7.0,56,0.00,,,0.00,12.000000,,2013-02-02 16:22:00,
2013-02-02 08:31:00,49.0,34.0,-100.00,NNW,346,4.0,7.0,56,0.00,,,0.00,12.000000,,2013-02-02 16:31:00,
2013-02-02 08:42:00,49.0,34.0,-100.00,NNW,346,4.0,7.0,56,0.00,,,0.00,12.000000,,2013-02-02 16:42:00,
2013-02-02 08:51:00,49.0,34.0,-100.00,NNW,346,4.0,7.0,56,0.00,,,0.00,12.000000,,2013-02-02 16:51:00,
2013-02-02 09:22:00,52.0,40.0,-100.00,WNW,286,2.0,4.0,63,0.00,,,0.00,65.000000,,2013-02-02 17:22:00,
2013-02-02 09:32:00,52.0,40.0,-100.00,WNW,286,2.0,4.0,63,0.00,,,0.00,65.000000,,2013-02-02 17:32:00,
2013-02-02 09:41:00,52.0,40.0,-100.00,WNW,286,2.0,4.0,63,0.00,,,0.00,65.000000,,2013-02-02 17:41:00,
2013-02-02 09:52:00,52.0,40.0,-100.00,WNW,286,2.0,4.0,63,0.00,,,0.00,65.000000,,2013-02-02 17:52:00,
2013-02-02 10:12:00,57.0,38.0,-100.00,NW,316,3.0,5.0,49,0.00,,,0.00,122.000000,,2013-02-02 18:12:00,
2013-02-02 10:22:00,57.0,38.0,-100.00,NW,316,3.0,5.0,49,0.00,,,0.00,122.000000,,2013-02-02 18:22:00,
2013-02-02 10:31:00,57.0,38.0,-100.00,NW,316,3.0,5.0,49,0.00,,,0.00,122.000000,,2013-02-02 18:31:00,
2013-02-02 10:41:00,57.0,38.0,-100.00,NW,316,3.0,5.0,49,0.00,,,0.00,122.000000,,2013-02-02 18:41:00,
2013-02-02 10:52:00,57.0,38.0,-100.00,NW,316,3.0,5.0,49,0.00,,,0.00,122.000000,,2013-02-02 18:52:00,
2013-02-02 11:21:00,61.0,41.0,-100.00,ESE,115,1.0,5.0,47,0.00,,,0.00,170.000000,,2013-02-02 19:21:00,
2013-02-02 11:32:00,61.0,41.0,-100.00,ESE,115,1.0,5.0,47,0.00,,,0.00,170.000000,,2013-02-02 19:32:00,
2013-02-02 11:41:00,61.0,41.0,-100.00,ESE,115,1.0,5.0,47,0.00,,,0.00,170.000000,,2013-02-02 19:41:00,
2013-02-02 11:51:00,61.0,41.0,-100.00,ESE,115,1.0,5.0,47,0.00,,,0.00,170.000000,,2013-02-02 19:51:00,
2013-02-02 12:11:00,64.0,41.0,-100.00,NW,322,3.0,7.0,43,0.00,,,0.00,200.000000,,2013-02-02 20:11:00,
2013-02-02 12:21:00,64.0,41.0,-100.00,NW,322,3.0,7.0,43,0.00,,,0.00,200.000000,,2013-02-02 20:21:00,
2013-02-02 12:32:00,64.0,41.0,-100.00,NW,322,3.0,7.0,43,0.00,,,0.00,200.000000,,2013-02-02 20:32:00,
2013-02-02 12:41:00,64.0,41.0,-100.00,NW,322,3.0,7.0,43,0.00,,,0.00,200.000000,,2013-02-02 20:41:00,
2013-02-02 12:52:00,64.0,41.0,-100.00,NW,322,3.0,7.0,43,0.00,,,0.00,200.000000,,2013-02-02 20:52:00,
2013-02-02 13:11:00,65.0,41.0,-100.00,NW,320,3.0,6.0,42,0.00,,,0.00,181.000000,,2013-02-02 21:11:00,
2013-02-02 13:21:00,65.0,41.0,-100.00,NW,320,3.0,6.0,42,0.00,,,0.00,181.000000,,2013-02-02 21:21:00,
2013-02-02 13:32:00,65.0,41.0,-100.00,NW,320,3.0,6.0,42,0.00,,,0.00,181.000000,,2013-02-02 21:32:00,
2013-02-02 13:42:00,65.0,41.0,-100.00,NW,320,3.0,6.0,42,0.00,,,0.00,181.000000,,2013-02-02 21:42:00,
2013-02-02 13:51:00,65.0,41.0,-100.00,NW,320,3.0,6.0,42,0.00,,,0.00,181.000000,,2013-02-02 21:51:00,
2013-02-02 14:11:00,67.0,43.0,-100.00,NW,305,4.0,7.0,41,0.00,,,0.00,204.000000,,2013-02-02 22:11:00,
2013-02-02 14:21:00,67.0,43.0,-100.00,NW,305,4.0,7.0,41,0.00,,,0.00,204.000000,,2013-02-02 22:21:00,
2013-02-02 14:32:00,67.0,43.0,-100.00,NW,305,4.0,7.0,41,0.00,,,0.00,204.000000,,2013-02-02 22:32:00,
2013-02-02 14:41:00,67.0,43.0,-100.00,NW,305,4.0,7.0,41,0.00,,,0.00,204.000000,,2013-02-02 22:41:00,
2013-02-02 14:51:00,67.0,43.0,-100.00,NW,305,4.0,7.0,41,0.00,,,0.00,204.000000,,2013-02-02 22:51:00,
2013-02-02 15:21:00,65.0,44.0,-100.00,NW,307,3.0,8.0,46,0.00,,,0.00,186.000000,,2013-02-02 23:21:00,
2013-02-02 15:32:00,65.0,44.0,-100.00,NW,307,3.0,8.0,46,0.00,,,0.00,186.000000,,2013-02-02 23:32:00,
2013-02-02 15:41:00,65.0,44.0,-100.00,NW,307,3.0,8.0,46,0.00,,,0.00,186.000000,,2013-02-02 23:41:00,
2013-02-02 15:52:00,65.0,44.0,-100.00,NW,307,3.0,8.0,46,0.00,,,0.00,186.000000,,2013-02-02 23:52:00,
2013-02-02 16:11:00,65.0,44.0,-100.00,SE,144,2.0,4.0,46,0.00,,,0.00,107.000000,,2013-02-03 00:11:00,
2013-02-02 16:21:00,65.0,44.0,-100.00,SE,144,2.0,4.0,46,0.00,,,0.00,107.000000,,2013-02-03 00:21:00,
2013-02-02 16:31:00,65.0,44.0,-100.00,SE,144,2.0,4.0,46,0.00,,,0.00,107.000000,,2013-02-03 00:31:00,
2013-02-02 16:41:00,65.0,44.0,-100.00,SE,144,2.0,4.0,46,0.00,,,0.00,107.000000,,2013-02-03 00:41:00,
2013-02-02 16:51:00,65.0,44.0,-100.00,SE,144,2.0,4.0,46,0.00,,,0.00,107.000000,,2013-02-03 00:51:00,
2013-02-02 17:11:00,61.0,45.0,-100.00,NNW,345,3.0,6.0,56,0.00,,,0.00,55.000000,,2013-02-03 01:11:00,
2013-02-02 17:21:00,61.0,45.0,-100.00,NNW,345,3.0,6.0,56,0.00,,,0.00,55.000000,,2013-02-03 01:21:00,
2013-02-02 17:32:00,61.0,45.0,-100.00,NNW,345,3.0,6.0,56,0.00,,,0.00,55.000000,,2013-02-03 01:32:00,
2013-02-02 17:41:00,61.0,45.0,-100.00,NNW,345,3.0,6.0,56,0.00,,,0.00,55.000000,,2013-02-03 01:41:00,
2013-02-02 17:51:00,61.0,45.0,-100.00,NNW,345,3.0,6.0,56,0.00,,,0.00,55.000000,,2013-02-03 01:51:00,
2013-02-02 18:11:00,58.0,46.0,-100.00,SSW,198,2.0,5.0,64,0.00,,,0.00,7.000000,,2013-02-03 02:11:00,
2013-02-02 18:21:00,58.0,46.0,-100.00,SSW,198,2.0,5.0,64,0.00,,,0.00,7.000000,,2013-02-03 02:21:00,
2013-02-02 18:31:00,58.0,46.0,-100.00,SSW,198,2.0,5.0,64,0.00,,,0.00,7.000000,,2013-02-03 02:31:00,
2013-02-02 18:41:00,58.0,46.0,-100.00,SSW,198,2.0,5.0,64,0.00,,,0.00,7.000000,,2013-02-03 02:41:00,
2013-02-02 18:52:00,58.0,46.0,-100.00,SSW,198,2.0,5.0,64,0.00,,,0.00,7.000000,,2013-02-03 02:52:00,
2013-02-02 19:21:00,55.0,45.0,-100.00,ESE,117,1.0,6.0,69,0.00,,,0.00,0.000000,,2013-02-03 03:21:00,
2013-02-02 19:31:00,55.0,45.0,-100.00,ESE,117,1.0,6.0,69,0.00,,,0.00,0.000000,,2013-02-03 03:31:00,
2013-02-02 19:41:00,55.0,45.0,-100.00,ESE,117,1.0,6.0,69,0.00,,,0.00,0.000000,,2013-02-03 03:41:00,
2013-02-02 19:51:00,55.0,45.0,-100.00,ESE,117,1.0,6.0,69,0.00,,,0.00,0.000000,,2013-02-03 03:51:00,
2013-02-02 20:11:00,55.0,45.0,-100.00,NE,44,0.0,4.0,70,0.00,,,0.00,0.000000,,2013-02-03 04:11:00,
2013-02-02 20:21:00,55.0,45.0,-100.00,NE,44,0.0,4.0,70,0.00,,,0.00,0.000000,,2013-02-03 04:21:00,
2013-02-02 20:31:00,55.0,45.0,-100.00,NE,44,0.0,4.0,70,0.00,,,0.00,0.000000,,2013-02-03 04:31:00,
2013-02-02 20:42:00,55.0,45.0,-100.00,NE,44,0.0,4.0,70,0.00,,,0.00,0.000000,,2013-02-03 04:42:00,
2013-02-02 20:51:00,55.0,45.0,-100.00,NE,44,0.0,4.0,70,0.00,,,0.00,0.000000,,2013-02-03 04:51:00,
2013-02-02 21:22:00,52.0,44.0,-100.00,ESE,110,2.0,3.0,73,0.00,,,0.00,0.000000,,2013-02-03 05:22:00,
2013-02-02 21:32:00,52.0,44.0,-100.00,ESE,110,2.0,3.0,73,0.00,,,0.00,0.000000,,2013-02-03 05:32:00,
2013-02-02 21:41:00,52.0,44.0,-100.00,ESE,110,2.0,3.0,73,0.00,,,0.00,0.000000,,2013-02-03 05:41:00,
2013-02-02 21:52:00,52.0,44.0,-100.00,ESE,110,2.0,3.0,73,0.00,,,0.00,0.000000,,2013-02-03 05:52:00,
2013-02-02 22:11:00,53.0,46.0,-100.00,ENE,68,1.0,4.0,77,0.00,,,0.00,0.000000,,2013-02-03 06:11:00,
2013-02-02 22:21:00,53.0,46.0,-100.00,ENE,68,1.0,4.0,77,0.00,,,0.00,0.000000,,2013-02-03 06:21:00,
2013-02-02 22:31:00,53.0,46.0,-100.00,ENE,68,1.0,4.0,77,0.00,,,0.00,0.000000,,2013-02-03 06:31:00,
2013-02-02 22:41:00,53.0,46.0,-100.00,ENE,68,1.0,4.0,77,0.00,,,0.00,0.000000,,2013-02-03 06:41:00,
2013-02-02 22:52:00,53.0,46.0,-100.00,ENE,68,1.0,4.0,77,0.00,,,0.00,0.000000,,2013-02-03 06:52:00,
2013-02-02 23:11:00,51.0,44.0,-100.00,North,354,0.0,3.0,78,0.00,,,0.00,0.000000,,2013-02-03 07:11:00,
2013-02-02 23:21:00,51.0,44.0,-100.00,North,354,0.0,3.0,78,0.00,,,0.00,0.000000,,2013-02-03 07:21:00,
2013-02-02 23:31:00,51.0,44.0,-100.00,North,354,0.0,3.0,78,0.00,,,0.00,0.000000,,2013-02-03 07:31:00,
2013-02-02 23:41:00,51.0,44.0,-100.00,North,354,0.0,3.0,78,0.00,,,0.00,0.000000,,2013-02-03 07:41:00,
2013-02-02 23:52:00,51.0,44.0,-100.00,North,354,0.0,3.0,78,0.00,,,0.00,0.000000,,2013-02-03 07:52:00,